Location: Newark
(45.7425°N, 0.7617°W)
Time: 10:43:15
(UTC+00:00)

N. Korean satellite - Pass Details

Date: 26 January 2020
Orbit: 456 x 505 km, 97.2° (Epoch: 19 February)

Event Time Altitude Azimuth Distance (km) Brightness Sun altitude
Rises 17:28:05 0° 186° (S) 2,461 10.5 -5.4°
Reaches altitude 10° 17:30:14 10° 195° (SSW) 1,592 9.7 -5.7°
Maximum altitude 17:33:22 34° 263° (W) 768 8.4 -6.3°
Drops below altitude 10° 17:36:34 10° 330° (NNW) 1,611 9.3 -6.8°
Sets 17:38:45 0° 340° (NNW) 2,496 10.2 -7.1°
